Theta_e
319 320 323 325 317 312 315 317 314 316 316 315 315 314 310 311 314 317 313 317 322 326 327 325 325 324 329 331 332 332 332 332 332 332 331 330 332 333 332 329 327 327 327 325 324 322 323 319 317
319 321 324 324 313 315 313 314 316 314 314 314 313 312 311 309 312 311 314 315 317 319 320 322 320 317 317 324 329 331 333 332 331 330 329 328 329 329 330 330 328 329 328 327 325 322 320 319 318
319 323 324 313 310 314 314 314 314 315 315 315 312 311 309 307 308 308 308 310 313 316 316 316 316 315 313 313 317 324 326 329 331 331 330 329 328 328 329 330 330 328 328 328 327 324 320 318 317
320 322 318 311 315 314 314 314 313 314 315 314 311 307 306 307 307 306 306 307 310 312 312 312 313 315 315 314 314 315 319 324 327 330 329 329 329 329 328 329 329 329 328 328 328 327 322 318 316
319 319 313 312 314 314 312 313 314 313 312 312 312 306 305 305 305 304 305 305 307 307 307 307 307 308 309 310 312 313 314 316 320 322 326 329 329 329 328 328 327 328 328 327 326 327 327 323 327
318 314 313 314 314 313 313 314 313 311 311 311 309 306 305 304 305 305 304 305 305 305 305 306 305 305 305 306 306 306 307 308 311 314 317 320 323 326 327 326 327 328 327 326 326 324 326 327 327
315 311 314 311 312 314 314 314 312 311 311 310 309 304 303 303 305 305 304 304 305 305 305 305 306 305 306 306 306 305 306 306 307 307 307 310 317 321 323 325 325 325 325 325 324 325 326 326 328
317 311 315 312 312 315 314 313 312 311 309 310 310 303 302 303 304 304 304 304 304 304 304 304 303 302 301 301 300 300 300 301 301 304 306 306 306 309 319 322 321 323 323 323 325 325 323 327 327
319 314 315 314 313 314 313 312 311 310 309 308 308 307 306 304 303 303 303 303 303 303 303 300 300 300 300 300 300 300 300 300 300 300 300 300 303 305 305 308 321 324 322 322 322 324 323 326 327
314 313 315 313 311 312 313 312 311 309 305 302 304 304 303 303 303 303 303 303 303 301 300 299 299 299 299 299 299 298 299 299 299 299 299 299 299 299 300 303 303 309 321 324 323 324 325 323 327
313 312 313 314 314 314 312 311 311 308 306 305 304 303 302 303 303 303 303 302 300 299 298 298 298 297 297 297 297 297 297 298 298 297 297 298 298 298 298 298 301 303 303 315 323 324 325 325 324
315 314 314 314 314 313 310 311 309 309 310 311 309 307 303 302 303 302 301 300 298 297 296 296 296 296 295 295 296 296 296 296 297 297 296 296 297 297 297 297 297 298 300 300 310 321 322 323 325
314 313 313 313 313 313 312 311 310 308 310 309 306 303 303 302 302 301 300 298 296 296 296 295 295 295 295 295 295 295 295 296 296 296 296 296 296 296 296 297 297 297 297 297 298 307 320 323 323
313 313 313 313 312 311 311 309 309 306 306 306 304 303 302 302 302 301 298 297 295 294 294 294 294 294 294 294 294 294 295 295 295 295 295 295 295 295 296 296 296 296 296 296 296 296 303 319 322
312 311 310 310 311 310 310 309 307 308 304 304 303 302 301 301 300 299 297 295 295 293 293 293 293 293 293 293 293 294 294 295 295 295 295 294 294 294 294 295 295 295 295 295 295 295 295 300 316
311 310 311 311 309 310 309 310 308 308 304 301 301 300 300 300 299 297 296 295 294 293 293 293 292 292 292 293 293 293 294 294 294 294 294 294 294 294 294 294 294 293 293 294 294 294 295 295 299
307 312 311 310 309 308 307 308 307 306 303 300 300 300 299 297 296 296 295 294 294 293 293 292 292 292 292 293 293 293 293 294 294 293 293 294 294 294 294 294 294 293 293 292 292 294 294 294 294
314 310 308 307 309 308 308 307 306 305 302 302 300 300 299 297 297 296 295 294 294 293 292 292 292 291 292 292 292 293 293 293 293 293 293 292 293 293 293 293 293 293 293 291 291 292 293 294 293
309 308 306 306 307 309 308 308 310 305 301 301 300 299 299 297 296 295 294 294 294 292 292 291 292 292 292 291 292 292 291 292 292 292 291 291 291 292 292 292 291 291 291 290 291 293 294 293 294
308 308 307 306 306 306 306 306 307 303 302 302 300 298 299 296 295 294 294 293 293 292 292 291 291 291 291 290 291 290 290 290 291 290 290 290 290 290 291 291 291 290 289 289 289 290 293 294 296
307 308 307 308 304 303 302 302 305 304 303 304 301 299 298 298 295 294 293 293 292 292 292 292 291 290 290 290 290 290 290 291 290 289 289 290 289 289 290 291 290 289 287 286 286 289 292 293 294
307 306 307 306 305 306 304 309 304 303 302 299 299 298 298 297 295 295 293 293 292 292 291 291 291 290 290 290 290 289 289 289 289 289 289 289 289 289 289 289 289 289 287 284 284 286 291 292 292
308 305 305 305 304 303 303 303 303 300 301 303 297 296 296 298 295 294 293 293 292 291 291 290 291 290 290 289 289 289 288 288 288 288 288 289 289 288 288 288 288 288 287 284 282 284 289 293 293
305 305 304 299 301 304 304 304 303 302 302 301 298 296 296 297 295 294 293 292 291 291 291 290 290 289 288 288 288 288 287 287 287 288 288 288 288 287 288 287 286 286 286 282 281 282 287 291 293
305 305 310 310 304 310 300 301 308 306 303 299 298 296 296 296 294 293 292 292 291 291 290 290 289 288 288 287 287 287 287 286 287 287 286 285 286 287 286 284 285 285 284 279 279 280 284 288 290
304 306 310 309 308 310 301 305 306 300 296 296 296 299 296 294 294 293 292 292 291 290 290 289 288 288 287 287 287 286 286 286 286 285 284 284 285 285 284 285 283 280 280 278 277 279 280 285 289
304 304 303 305 286 296 305 301 301 295 293 292 295 297 294 293 294 293 292 292 291 290 289 288 288 287 287 287 286 286 286 286 285 284 283 284 285 285 284 283 281 277 277 276 275 277 279 282 286
301 300 303 300 302 303 305 304 309 303 298 291 290 291 292 292 293 292 292 291 290 289 289 288 287 287 287 286 286 286 285 284 284 283 283 284 284 284 284 282 279 275 274 273 274 275 278 280 284
298 300 299 300 304 305 303 310 303 305 299 293 291 292 293 292 293 292 292 291 289 289 288 288 288 287 287 286 286 285 285 284 283 282 283 284 284 283 282 279 277 274 273 273 274 274 277 279 283
300 301 302 304 302 299 303 310 299 299 299 293 292 293 293 293 293 292 292 290 289 289 288 288 288 286 286 285 285 285 284 283 282 282 282 283 283 282 278 277 275 272 272 272 273 273 275 278 280
Wind_Speed
4 3 1 1 4 5 1 0 1 2 2 10 17 18 12 10 3 4 1 7 6 6 6 7 6 3 1 2 2 4 7 8 9 10 11 13 15 14 15 15 14 13 14 14 14 16 17 18 19
3 3 1 2 5 4 4 2 3 3 13 24 18 9 13 4 9 4 6 9 9 9 9 8 8 5 6 6 6 6 5 7 9 11 13 14 15 17 18 18 18 16 16 17 16 15 17 17 20
3 2 1 4 3 4 4 3 4 5 13 5 8 11 5 5 7 4 6 6 7 8 9 9 10 10 8 7 8 12 12 10 10 10 12 14 16 17 19 20 20 20 20 20 19 19 17 17 19
2 2 4 4 2 2 4 3 5 8 7 6 18 10 8 3 3 5 3 4 7 7 8 8 9 10 10 10 9 9 12 15 16 14 14 15 15 17 20 21 22 23 22 22 22 21 20 19 18
3 2 4 4 1 1 1 1 10 3 4 7 3 7 7 8 8 5 4 3 4 7 9 11 12 12 10 10 10 10 10 11 14 17 19 19 18 18 20 21 22 23 23 24 23 24 22 21 20
2 2 4 3 3 1 2 4 5 5 7 7 10 9 6 10 8 4 3 3 6 6 8 9 10 11 12 13 13 14 13 13 13 15 19 22 23 23 23 22 22 23 24 25 25 25 26 25 24
5 4 4 4 6 1 3 3 5 6 7 3 14 5 11 12 9 5 2 1 2 3 5 7 8 10 10 11 12 12 13 13 14 16 16 18 22 24 26 26 26 25 24 26 28 27 27 28 27
2 4 3 2 5 4 1 4 6 5 3 10 9 8 8 20 12 7 5 4 2 1 4 5 7 9 11 12 13 15 16 16 16 17 18 19 18 19 25 26 28 28 30 27 28 30 30 30 30
1 4 1 4 6 4 5 4 3 4 10 6 8 11 11 20 13 9 8 6 3 2 4 7 9 10 12 14 16 17 18 19 19 19 20 21 21 23 20 21 26 28 30 30 31 31 32 33 32
4 3 4 2 4 5 5 5 12 7 8 4 10 14 18 16 12 13 8 4 1 2 6 9 12 15 16 18 19 20 21 21 21 21 21 22 22 23 25 26 24 25 28 30 31 33 33 36 34
1 3 4 3 4 7 6 4 9 11 5 16 23 25 21 17 15 11 6 3 1 3 6 10 14 16 18 20 21 22 23 24 23 23 23 21 23 24 25 27 29 28 26 29 31 32 32 35 38
2 1 3 6 5 5 6 7 6 18 6 11 18 22 21 18 13 9 6 4 2 3 7 11 14 17 19 20 22 24 25 26 26 26 26 28 28 27 29 28 30 32 31 30 28 32 32 36 37
1 2 2 5 8 10 8 6 7 17 16 13 21 22 20 18 15 11 9 7 2 3 6 10 13 16 20 21 23 25 26 27 29 28 27 27 29 32 33 33 34 33 34 34 33 32 32 31 35
3 4 7 6 8 8 6 2 2 9 15 20 24 24 21 18 16 14 11 9 3 4 6 10 13 16 18 20 22 24 26 28 30 32 33 33 33 34 35 36 36 36 36 36 38 35 36 38 32
4 6 6 6 8 5 6 5 10 11 24 26 27 25 22 19 18 15 13 10 4 4 7 10 13 16 18 21 23 24 27 29 31 32 33 36 38 39 39 41 41 38 36 40 40 41 38 39 42
4 3 5 1 6 2 8 10 6 17 30 32 30 29 27 24 21 18 15 11 7 5 7 11 14 16 19 22 24 26 28 30 32 33 34 36 38 39 42 44 42 41 41 37 40 42 44 42 42
6 3 3 9 10 4 6 9 3 19 31 27 34 32 29 25 23 22 18 13 8 7 9 12 14 18 21 23 25 26 29 31 33 34 35 36 36 38 42 43 45 45 44 45 41 41 41 45 44
4 5 5 6 2 4 5 16 6 17 30 33 35 35 33 30 28 24 19 15 10 10 11 12 16 19 22 26 28 29 30 31 33 35 35 37 39 41 41 43 44 44 45 45 45 42 40 42 42
2 4 7 5 5 5 8 12 21 19 24 24 29 37 39 37 29 26 21 16 13 11 10 13 17 21 24 27 31 34 34 35 36 37 38 39 41 42 45 47 47 44 43 43 40 37 39 42 39
4 4 8 10 2 7 9 11 18 9 15 34 37 39 43 37 32 30 24 19 14 12 10 12 18 22 24 27 30 33 36 38 39 41 41 42 43 44 46 47 48 46 44 40 41 38 38 39 34
4 5 6 8 7 5 7 5 10 3 18 19 30 37 43 44 38 33 27 21 15 11 11 13 17 21 24 28 31 33 36 39 42 42 44 45 46 47 48 48 46 44 41 41 41 38 38 41 36
5 4 3 5 4 4 4 9 5 5 12 10 23 36 43 46 40 35 29 24 16 11 10 13 17 22 26 28 31 32 36 40 41 44 45 47 48 49 51 50 46 45 45 43 41 40 33 42 43
8 2 2 3 4 4 4 4 6 2 10 18 16 35 40 47 43 36 31 24 16 10 10 13 19 23 26 28 30 33 35 38 42 44 48 48 50 49 51 52 48 45 46 42 39 39 36 35 43
4 2 2 4 2 2 5 8 4 5 8 6 7 30 36 46 43 36 29 21 13 10 10 14 20 23 25 28 29 32 35 39 41 45 49 50 51 52 51 52 52 45 44 39 34 37 40 40 33
3 5 4 5 2 7 3 4 12 11 13 10 9 22 36 44 42 37 30 21 14 11 11 14 19 23 25 28 30 32 35 38 42 44 47 49 52 53 53 52 54 46 41 38 42 42 42 43 44
6 7 6 7 4 7 1 9 7 7 11 17 20 23 30 41 43 38 30 21 14 11 12 14 19 23 26 29 31 33 35 38 42 43 44 47 50 53 53 53 52 49 42 43 38 36 36 42 44
4 5 1 1 2 3 5 8 8 5 8 5 11 23 32 40 44 37 28 20 13 11 11 14 19 23 27 30 32 34 37 39 41 43 45 46 48 52 54 52 52 48 44 40 40 42 40 41 42
3 5 4 2 3 7 7 9 14 9 11 5 8 20 28 36 41 34 27 19 13 11 12 16 20 25 28 31 34 36 38 40 43 45 45 46 49 52 54 54 51 46 44 42 38 37 41 42 45
2 3 1 3 5 6 3 11 7 8 10 11 15 26 31 40 43 35 26 18 13 12 14 18 23 27 29 32 34 37 40 41 43 45 46 47 50 52 53 52 50 46 44 40 38 43 41 41 46
2 10 13 6 7 4 3 21 9 8 9 12 19 28 33 39 40 32 25 18 14 13 15 20 25 27 29 32 35 38 40 42 44 45 46 48 51 52 51 51 48 46 42 40 39 37 35 36 42
Wind_Direction
129 150 125 3 52 66 358 116 295 148 89 76 84 100 107 70 46 146 143 345 0 349 336 334 341 336 260 277 290 317 305 300 298 296 290 297 296 293 295 300 300 299 301 305 295 280 270 274 275
142 150 202 86 84 62 286 273 121 183 119 104 86 79 58 74 66 60 173 2 350 339 324 334 328 315 296 274 259 248 270 284 288 292 292 292 290 288 291 296 298 299 301 302 300 288 278 268 270
146 153 87 91 106 154 185 204 201 101 145 149 110 71 62 356 49 66 36 4 1 322 324 344 340 321 307 282 268 262 259 257 264 284 289 288 288 288 285 288 289 293 296 298 296 295 284 275 264
180 134 65 79 106 200 188 170 213 136 85 102 119 76 80 43 103 102 62 7 318 333 1 8 356 355 336 325 314 289 277 272 271 269 271 275 281 284 285 283 284 286 287 289 293 292 289 280 269
142 99 62 79 111 277 199 139 171 102 104 127 135 133 103 105 125 125 103 79 67 65 54 50 44 35 15 3 349 337 320 299 289 282 277 277 279 281 278 284 285 284 284 284 284 286 284 280 277
62 65 70 159 205 286 311 142 123 100 118 122 110 107 137 156 170 164 109 60 68 66 65 59 52 47 44 39 32 24 9 350 326 300 287 281 278 277 279 282 280 282 281 280 279 279 278 277 274
116 88 163 142 168 190 187 133 116 131 116 79 138 102 157 180 182 173 174 158 85 64 59 49 39 34 26 18 13 6 357 347 340 333 325 302 285 281 277 278 279 279 278 280 278 275 273 273 271
94 92 110 153 176 204 278 108 121 122 151 137 173 175 182 186 182 185 199 207 186 111 51 38 27 22 18 14 5 356 346 335 324 316 312 310 313 296 278 276 274 274 275 272 277 276 270 269 268
25 62 131 160 153 190 179 139 158 134 144 167 185 173 189 171 178 190 206 189 166 68 30 23 17 14 10 5 2 356 350 343 333 320 311 304 300 300 299 286 275 274 271 272 269 271 269 268 266
76 97 198 210 167 171 196 185 162 162 146 119 142 164 162 169 184 206 203 203 238 355 6 7 2 3 4 4 3 359 356 350 344 334 324 318 311 301 296 294 294 285 273 268 267 266 268 261 263
136 162 174 196 181 168 188 172 180 155 227 202 185 173 175 181 192 202 204 204 243 348 356 356 1 1 3 4 4 360 355 350 347 340 333 324 317 312 304 293 286 288 289 275 266 267 271 266 263
3 340 177 166 190 182 187 176 196 194 224 237 211 189 182 186 191 197 202 210 231 355 1 3 1 2 4 4 2 358 355 352 348 344 338 331 325 319 315 310 301 292 290 289 278 268 271 271 268
99 306 238 178 191 216 211 208 222 226 241 213 187 184 187 189 193 197 206 214 232 321 343 350 357 0 1 359 358 356 354 351 348 342 339 332 327 324 319 313 308 301 294 291 285 275 267 270 271
308 276 269 240 209 206 205 213 202 217 185 179 186 190 194 199 203 204 207 215 235 330 343 353 354 357 357 356 357 356 353 350 344 342 343 340 334 330 325 319 313 304 299 294 289 282 273 266 267
324 329 326 216 197 218 196 270 235 213 188 187 194 199 200 201 203 209 209 210 228 319 341 347 352 355 355 357 358 354 351 346 342 340 338 337 336 333 329 324 319 311 300 294 291 287 281 273 264
22 51 351 299 154 203 157 263 263 219 192 197 198 199 198 198 204 205 208 217 233 304 326 342 348 350 352 354 353 352 348 343 339 337 336 337 336 333 329 326 322 315 307 296 289 288 287 280 274
13 275 251 312 201 125 187 267 258 207 201 200 207 204 198 196 199 205 211 219 239 295 319 333 340 344 347 346 346 347 343 340 336 333 333 333 331 330 326 322 320 315 307 299 292 285 286 287 279
269 285 255 238 295 208 232 265 252 217 208 213 209 209 203 204 210 209 212 221 245 282 310 328 342 345 345 344 343 340 338 335 332 331 332 333 333 331 326 322 319 315 306 295 289 291 285 281 286
207 233 247 246 236 226 237 251 271 227 218 224 216 212 209 210 211 209 211 220 244 276 305 327 339 341 342 342 339 336 338 336 333 330 332 334 334 332 332 330 325 318 307 292 283 283 282 283 284
221 272 270 283 245 197 259 247 273 215 225 219 215 212 211 210 205 206 209 219 240 272 305 325 337 340 341 341 339 338 337 335 331 331 333 333 333 334 332 331 325 316 306 296 275 277 281 279 280
221 199 246 241 336 278 320 256 246 274 246 239 226 223 220 213 205 205 209 220 242 270 303 321 335 339 339 338 336 335 330 326 328 330 330 329 330 331 330 330 325 314 303 292 279 271 272 275 276
277 212 270 292 346 248 41 291 254 252 270 224 221 216 219 216 212 211 209 217 235 265 298 317 335 337 337 336 335 332 328 326 327 325 326 329 329 327 328 328 324 311 303 292 283 267 269 270 270
224 109 215 219 246 332 226 248 256 57 275 260 216 220 217 219 212 208 209 218 231 256 292 318 330 335 333 335 332 328 325 324 323 325 325 325 323 325 326 325 322 310 300 293 281 267 260 267 265
112 21 52 55 78 286 225 191 234 204 218 257 219 218 212 218 209 209 211 218 234 267 297 317 326 330 333 331 328 327 325 323 324 325 323 324 323 324 325 323 318 310 298 293 285 270 257 255 261
102 70 321 324 339 237 145 234 252 248 251 237 230 215 219 214 205 203 207 217 237 268 297 315 323 329 330 328 326 324 323 324 324 324 324 324 323 322 325 320 315 310 299 293 282 277 259 256 258
171 165 166 247 240 286 200 245 249 237 276 276 270 252 226 211 206 205 209 220 241 271 295 311 320 326 325 324 322 322 323 324 323 324 323 321 320 321 322 318 313 309 301 292 287 282 266 255 253
170 183 160 54 99 341 240 286 291 289 280 276 224 212 211 209 206 205 209 222 242 266 290 308 317 320 321 321 322 323 323 323 322 322 323 322 321 320 319 315 312 306 302 296 279 270 268 255 260
148 158 85 14 272 265 264 274 247 245 262 195 222 215 211 210 206 206 212 223 242 266 289 307 313 319 322 321 322 324 325 326 325 325 325 323 322 320 318 315 311 304 296 292 289 282 271 266 253
126 221 158 149 171 204 297 269 202 214 219 205 214 218 214 211 206 206 213 222 240 265 292 306 315 320 321 322 324 326 326 326 327 325 325 325 322 319 316 314 310 299 292 289 283 280 274 267 254
230 200 182 197 231 241 143 261 166 196 236 185 215 221 225 218 210 211 215 225 243 267 291 308 315 319 322 324 326 327 328 328 327 328 328 325 322 320 315 311 305 297 292 288 285 284 277 268 255